This is the latest recevied weather packets stored in our database for station/object DN9EM-1. If no packets are shown the sender has not sent any weather packets the latest 10 day(s).
| Time | Temp. | Humidity | Pressure | Rain* | Wind** | Luminosity | Snow |
|---|---|---|---|---|---|---|---|
| 1777557948 | 18.89° C | 39% | 1032.6 hPa | 0 mm | - | - | - |
| 1777557345 | 18.89° C | 39% | 1032.7 hPa | 0 mm | - | - | - |
| 1777556737 | 19.44° C | 38% | 1032.9 hPa | 0 mm | - | - | - |
| 1777556134 | 18.89° C | 38% | 1032.9 hPa | 0 mm | - | - | - |
| 1777555531 | 18.33° C | 39% | 1033.1 hPa | 0 mm | - | - | - |
| 1777554923 | 18.33° C | 39% | 1033.1 hPa | 0 mm | - | - | - |
| 1777554321 | 18.33° C | 38% | 1033.2 hPa | 0 mm | - | - | - |
| 1777553773 | 18.33° C | 38% | 1033.3 hPa | 0 mm | - | - | - |
| 1777553170 | 18.33° C | 38% | 1033.4 hPa | 0 mm | - | - | - |
| 1777552568 | 18.33° C | 38% | 1033.4 hPa | 0 mm | - | - | - |
| 1777551959 | 18.33° C | 38% | 1033.5 hPa | 0 mm | - | - | - |
| 1777551357 | 18.89° C | 37% | 1033.6 hPa | 0 mm | - | - | - |
| 1777550749 | 18.33° C | 38% | 1033.7 hPa | 0 mm | - | - | - |
| 1777550146 | 17.78° C | 39% | 1033.7 hPa | 0 mm | - | - | - |
| 1777549544 | 18.33° C | 38% | 1033.7 hPa | 0 mm | - | - | - |
| 1777548935 | 18.33° C | 38% | 1034 hPa | 0 mm | - | - | - |
| 1777548333 | 17.78° C | 38% | 1034.1 hPa | 0 mm | - | - | - |
| 1777547725 | 18.33° C | 38% | 1034.1 hPa | 0 mm | - | - | - |
| 1777547123 | 18.33° C | 37% | 1034.1 hPa | 0 mm | - | - | - |
| 1777546520 | 18.89° C | 36% | 1034.3 hPa | 0 mm | - | - | - |
| 1777545619 | 20.56° C | 35% | 1034.3 hPa | 0 mm | - | - | - |
| 1777545071 | 21.11° C | 34% | 1034.4 hPa | 0 mm | - | - | - |
| 1777544469 | 20° C | 36% | 1034.5 hPa | 0 mm | - | - | - |
| 1777543860 | 19.44° C | 35% | 1034.5 hPa | 0 mm | - | - | - |
| 1777543258 | 18.89° C | 36% | 1034.6 hPa | 0 mm | - | - | - |
* Rain latest hour (hover to see other rain measurements)
** Current wind speed in m/s (hover to see current wind gust speed)